Location: Oberwangen
(47.4286°N, 8.9679°E)
Time: 15:39:40
(UTC+00:00)

Cosmos 2219 Rocket - Pass Details

Date: 20 June 2021
Orbit: 829 x 845 km, 71.0° (Epoch: 03 August)

Event Time Altitude Azimuth Distance (km) Brightness Sun altitude
Rises 20:15:21 0° 178° (S) 3,391 4.9 -7.2°
Reaches altitude 10° 20:17:58 10° 170° (S) 2,460 4.1 -7.5°
Maximum altitude 20:23:02 35° 106° (ESE) 1,332 2.8 -8.1°
Drops below altitude 10° 20:28:08 10° 42° (NE) 2,473 4.7 -8.6°
Sets 20:30:45 0° 34° (NE) 3,410 5.6 -8.9°
